Terminal Aerodrome Forecast
Issued by NWS Cheyenne, WY

Home | Current Version | Previous Version | Text Only | Print | Product List | Glossary On
Versions: 1 2 3 4 5 6 7 8 9 10 11 12 13 14 15
000
FTUS45 KCYS 220520
TAFCYS
TAF
KCYS 220520Z 2206/2306 30010KT P6SM BKN070
     FM220900 29018G28KT P6SM BKN070
     FM221500 30020G30KT P6SM SCT150
     FM230000 24010KT P6SM BKN100=

USA.gov is the U.S. government's official web portal to all federal, state and local government web resources and services.